Location: Byhalia Creek
(34.8270°N, 89.8040°W)
Time: 19:21:31
(UTC+00:00)

Cosmos 2297 Rocket - Pass Details

Date: 22 April 2026
Orbit: 839 x 841 km, 71.0° (Epoch: 21 May)

Event Time Altitude Azimuth Distance (km) Brightness Sun altitude
Exits shadow 10:34:42 - 216° (SW) 2,745 4.4 -9.4°
Reaches altitude 10° 10:35:31 10° 218° (SW) 2,446 4.1 -9.2°
Maximum altitude 10:40:58 52° 294° (WNW) 1,032 2.4 -8.2°
Drops below altitude 10° 10:46:28 10° 11° (N) 2,459 5.1 -7.1°
Sets 10:49:00 0° 16° (NNE) 3,397 5.9 -6.6°
